{"data":{"norad_id":82627,"epoch":"2026-05-23T22:46:52.315968Z","epoch_age_seconds":159854,"freshness":"FRESH","line1":"1 82627U          26143.94921662  .00000679  00000+0  17428-2 0  9995","line2":"2 82627  82.4743 132.9568 0019226  66.8813 321.8925 13.16535785600179","mean_motion":13.16535785,"eccentricity":0.0019226,"inclination_deg":82.4743,"raan_deg":132.9568,"arg_perigee_deg":66.8813,"mean_anomaly_deg":321.8925,"bstar":0.0017428,"rev_number":60017,"period_min":109.3779611923,"perigee_km":1183.4151357857,"apogee_km":1212.5468246433,"semimajor_km":7576.1179802145,"source":"CELESTRAK","updated_at":"2026-05-25T13:38:11.192482Z"}}